Wind_Speed
7 7 7 7 7 7 7 7 8 8 8 7 7 8 9 10 10 10 9 9 9 10 10 10 10 9 9 9 9 9 9 8 7 7 7 7 8 7 7 6 6 5 5
7 8 8 7 7 8 8 8 9 9 9 8 8 9 10 10 10 9 9 9 9 9 10 10 10 10 10 10 9 8 8 8 7 7 8 8 7 7 7 6 6 5 5
8 8 8 8 8 8 8 9 10 9 9 9 9 10 10 9 9 9 10 10 9 9 9 9 10 10 10 9 9 8 8 7 7 7 7 7 7 7 6 6 6 6 5
7 8 9 9 9 9 9 9 10 10 10 10 10 10 9 9 10 10 10 10 9 9 9 9 10 10 9 8 8 8 8 7 7 7 6 7 7 6 6 6 5 6 6
8 9 9 9 9 9 9 9 10 10 10 10 11 11 10 10 10 9 9 9 9 9 10 9 9 10 9 8 8 8 7 7 6 7 6 7 7 6 6 6 5 5 5
9 10 10 9 9 9 9 9 10 10 10 10 11 11 10 10 9 9 9 9 9 10 10 9 9 9 8 8 8 8 7 7 6 7 7 7 6 6 6 6 5 5 5
10 10 10 10 9 9 9 10 10 9 9 10 10 10 9 9 9 9 9 9 10 9 9 9 9 10 8 8 8 7 7 7 7 7 7 7 7 6 6 5 5 5 5
11 11 11 10 10 10 10 9 9 9 9 10 10 9 9 9 8 8 8 9 9 9 9 9 9 9 8 8 8 7 7 7 6 7 7 7 7 6 5 4 5 5 4
12 11 11 11 10 10 11 10 10 10 11 10 10 9 8 8 8 8 8 8 9 9 9 9 9 9 8 8 8 7 7 6 6 6 6 6 5 5 4 4 4 4 3
12 12 11 11 10 11 11 10 10 10 10 10 10 9 9 8 8 8 8 8 8 9 9 9 9 8 8 7 7 6 5 5 5 5 5 4 4 4 4 3 3 3 2
13 12 12 11 11 11 11 11 10 10 9 10 10 9 9 9 8 8 8 8 7 7 8 8 8 7 7 6 5 5 4 4 4 4 3 2 2 2 2 1 1 1 1
13 13 12 12 12 12 11 11 10 10 9 9 8 8 8 8 8 7 7 7 7 7 7 7 7 7 6 5 4 4 4 3 3 3 2 1 1 1 0 1 1 1 1
14 13 12 12 12 12 11 10 10 9 8 8 8 7 7 8 7 7 6 7 7 7 7 7 6 5 5 4 4 3 3 3 2 2 1 0 0 1 2 2 2 2 2
13 13 12 12 12 11 11 10 10 9 9 8 8 7 7 7 7 6 6 6 6 6 7 6 5 4 4 3 3 3 3 2 2 1 1 1 1 2 2 2 2 3 3
12 13 13 12 11 11 11 10 10 9 8 9 8 7 7 7 7 6 5 5 6 6 5 4 4 3 2 2 1 1 1 1 1 2 2 2 2 3 3 3 3 4 4
12 12 12 12 11 11 10 10 9 10 10 10 9 9 8 7 7 7 7 7 6 5 4 4 3 3 2 1 2 2 1 1 2 3 4 4 4 5 5 5 5 5 5
12 12 12 12 11 11 11 11 10 10 10 10 9 9 9 8 8 8 7 6 5 4 4 4 4 3 2 2 1 1 2 2 2 3 4 4 5 6 6 6 6 7 7
12 12 12 12 11 11 11 11 10 10 10 9 9 9 9 8 8 7 6 5 5 4 4 4 3 2 1 1 0 1 2 3 3 4 5 5 6 7 7 7 7 7 8
11 11 11 11 11 10 11 10 10 10 10 9 9 9 8 8 7 6 5 5 4 4 4 3 2 1 1 0 1 2 3 3 4 5 6 6 7 7 8 8 8 8 9
10 10 10 10 10 10 10 9 9 9 8 8 8 8 8 7 6 6 5 4 4 3 3 2 1 1 1 2 2 3 3 4 5 5 6 7 8 8 9 9 10 11 11
10 9 9 10 9 9 9 8 8 8 7 7 7 7 6 6 5 5 4 4 3 2 2 1 1 1 2 2 3 4 4 5 5 6 7 8 8 9 10 11 11 11 12
10 9 8 9 9 9 8 8 7 7 6 6 5 5 5 4 4 3 3 3 3 3 2 2 2 2 3 4 4 4 5 5 6 6 8 8 8 9 10 11 11 11 11
9 9 8 8 8 8 8 7 7 7 6 5 5 5 4 4 4 3 3 3 3 2 2 3 3 3 3 4 5 5 5 6 6 7 7 8 9 9 9 10 11 11 11
8 8 8 7 7 7 7 7 7 7 6 5 5 5 4 4 4 4 3 3 2 2 3 4 4 4 4 5 5 5 6 6 6 7 8 8 9 9 9 9 10 11 12
6 6 7 7 6 6 6 6 6 6 6 5 5 5 5 4 4 3 3 2 2 3 4 4 5 5 5 5 5 6 6 7 7 7 8 9 9 10 10 11 11 12 12
4 5 6 6 6 6 5 5 5 5 5 4 5 5 5 4 4 3 3 3 3 3 4 5 5 6 6 7 7 7 7 8 8 9 10 10 11 11 11 12 12 12 12
Wind_Direction
82 94 97 104 106 105 107 109 106 114 115 115 117 127 132 136 136 133 128 126 126 128 130 132 133 133 130 126 122 118 115 116 115 117 119 122 128 127 120 117 121 119 119
85 94 93 97 95 98 100 99 104 111 110 111 111 118 128 131 132 130 129 128 127 128 130 133 135 134 130 125 123 119 120 118 119 122 122 123 123 121 119 116 115 117 117
88 96 92 91 95 99 103 103 107 110 110 108 108 115 122 129 132 131 128 128 129 133 132 133 135 133 129 126 124 123 121 118 122 127 129 129 126 122 118 118 113 112 113
83 95 96 91 93 100 100 105 108 109 110 109 110 112 116 120 123 123 120 123 129 133 131 136 138 135 130 126 123 121 119 119 124 129 130 130 128 126 121 116 115 114 116
83 91 96 93 98 99 99 105 108 106 107 110 113 113 114 116 118 121 121 122 129 133 130 132 138 136 132 130 128 124 122 119 116 121 129 128 128 129 125 120 115 111 114
85 89 94 96 97 96 101 106 110 110 109 113 117 116 116 116 118 121 125 123 128 131 130 131 136 136 135 136 132 126 121 115 110 111 121 126 128 128 123 124 118 107 105
86 87 91 96 96 95 99 107 108 112 115 118 121 120 120 120 123 123 125 125 130 132 132 135 135 133 134 135 132 128 122 114 109 109 118 123 126 123 124 126 116 112 110
83 84 87 92 95 96 97 103 107 110 119 120 120 121 122 122 126 129 128 130 131 134 135 137 132 129 128 129 129 132 130 123 117 118 121 122 121 118 115 114 109 109 109
84 83 86 88 88 92 95 101 107 110 111 114 119 120 124 125 127 138 136 135 132 135 136 136 132 130 129 131 133 133 124 121 122 120 115 118 121 120 116 109 107 109 110
83 85 85 86 85 86 94 98 103 110 110 112 117 123 127 126 124 130 138 140 132 133 138 140 138 134 131 130 130 130 118 120 122 124 120 119 120 121 116 109 114 110 117
81 83 82 83 83 85 93 97 100 108 110 114 117 121 123 123 125 125 135 137 131 132 140 143 144 143 139 132 130 127 124 125 125 127 120 121 125 127 124 120 116 128 144
80 80 81 83 83 85 90 93 94 100 105 110 113 120 121 119 119 120 125 138 138 136 140 145 145 149 151 148 145 142 135 134 130 130 113 108 124 129 255 268 275 258 225
77 79 80 81 83 86 89 91 92 92 99 108 111 116 123 121 120 121 120 136 143 144 143 144 146 146 151 161 163 157 148 145 147 154 144 142 270 271 279 281 273 265 256
76 77 77 80 79 83 86 85 85 88 89 101 114 120 126 123 124 126 126 131 142 147 147 148 149 149 150 155 162 169 172 174 182 201 229 254 280 264 265 269 274 271 276
75 76 74 76 78 79 81 81 78 81 82 92 98 110 117 121 122 120 123 130 133 137 140 149 143 137 141 136 163 187 192 220 229 245 249 252 259 269 270 272 281 277 275
72 75 75 74 76 77 75 73 74 77 83 89 91 97 102 107 113 118 117 115 115 122 132 132 141 143 159 174 204 225 221 247 259 268 260 259 264 270 274 276 280 279 274
74 74 71 72 74 78 78 77 79 81 81 83 89 92 92 96 98 101 105 107 108 109 112 122 125 134 145 158 182 234 259 262 272 273 278 273 273 274 273 272 276 278 274
75 73 71 72 74 78 80 80 82 80 82 86 87 90 91 94 98 100 104 104 105 103 98 97 103 104 120 105 284 280 283 277 274 281 284 282 284 282 278 274 276 283 281
71 70 72 73 74 77 79 80 80 79 81 87 90 90 90 92 99 102 97 106 106 99 96 92 82 78 96 355 316 305 299 287 283 290 292 288 284 284 279 277 277 279 280
64 66 71 73 73 74 76 76 76 76 79 82 86 89 91 92 93 95 95 99 101 95 88 85 69 43 351 306 301 305 298 292 290 297 299 293 288 285 283 280 279 279 280
60 64 68 72 74 74 75 74 72 71 73 75 83 86 89 87 87 88 90 84 84 87 70 34 13 357 346 320 307 300 297 297 294 298 300 297 292 285 286 282 282 283 283
58 62 68 70 73 75 74 71 70 71 71 71 76 77 80 80 80 79 80 70 63 67 48 19 352 340 333 322 313 305 300 297 298 298 297 295 292 287 284 283 286 287 284
57 60 64 65 68 70 69 68 69 68 68 69 69 67 73 78 75 69 73 67 61 46 22 2 345 335 330 326 322 315 307 300 302 302 308 310 306 300 294 294 294 291 290
55 56 57 59 62 65 68 67 64 62 62 62 60 60 64 69 67 63 61 54 38 15 359 354 349 336 324 320 319 317 313 309 308 307 312 314 315 313 308 303 302 300 297
52 57 54 51 52 57 62 60 59 57 59 58 56 54 56 58 57 55 48 31 6 351 343 343 339 335 329 322 316 313 310 309 308 307 309 311 311 310 308 304 302 302 302
50 51 47 44 44 46 55 57 59 53 51 54 54 50 50 48 43 40 27 11 354 342 334 328 324 325 324 321 314 311 310 310 309 306 305 306 306 306 306 302 302 302 302
Height
5851 5851 5851 5851 5852 5852 5852 5853 5853 5854 5855 5855 5856 5857 5858 5860 5862 5863 5865 5867 5868 5869 5870 5871 5872 5873 5874 5875 5876 5877 5878 5879 5880 5880 5881 5882 5883 5884 5884 5885 5886 5886 5886
5852 5852 5852 5852 5853 5853 5853 5854 5854 5855 5856 5857 5857 5858 5859 5861 5863 5865 5866 5868 5869 5870 5871 5872 5873 5874 5876 5877 5878 5879 5880 5880 5881 5882 5882 5883 5884 5884 5885 5886 5887 5887 5887
5853 5853 5853 5853 5854 5854 5854 5855 5855 5856 5857 5858 5859 5860 5861 5863 5865 5866 5867 5869 5870 5872 5873 5874 5875 5876 5877 5878 5879 5880 5881 5881 5882 5883 5883 5884 5885 5885 5886 5887 5888 5888 5888
5854 5854 5854 5854 5855 5855 5855 5856 5856 5857 5858 5859 5860 5862 5863 5864 5866 5867 5868 5870 5871 5872 5874 5875 5876 5877 5878 5880 5880 5881 5882 5883 5883 5883 5884 5885 5885 5886 5887 5888 5889 5889 5890
5856 5855 5856 5856 5856 5856 5857 5857 5858 5859 5860 5861 5862 5863 5864 5866 5867 5869 5870 5871 5873 5874 5875 5876 5877 5878 5880 5881 5882 5882 5883 5883 5883 5883 5884 5885 5886 5887 5888 5889 5890 5890 5890
5858 5857 5857 5858 5858 5858 5859 5859 5859 5860 5861 5862 5863 5865 5866 5867 5869 5870 5872 5873 5874 5875 5876 5878 5879 5880 5881 5882 5883 5883 5884 5885 5885 5884 5884 5886 5887 5888 5889 5890 5891 5891 5891
5859 5859 5859 5859 5860 5860 5860 5860 5861 5862 5863 5863 5865 5866 5867 5869 5870 5871 5873 5874 5875 5876 5878 5879 5880 5881 5882 5883 5884 5885 5885 5886 5886 5886 5886 5887 5889 5889 5890 5891 5891 5892 5892
5861 5861 5861 5861 5861 5861 5862 5862 5863 5863 5864 5865 5866 5867 5869 5870 5871 5873 5874 5875 5876 5878 5879 5880 5881 5882 5883 5884 5885 5886 5887 5887 5888 5888 5888 5889 5890 5890 5891 5892 5892 5892 5893
5863 5863 5863 5863 5863 5863 5863 5864 5864 5865 5865 5866 5867 5869 5870 5871 5872 5874 5875 5877 5878 5879 5880 5881 5882 5884 5885 5885 5886 5887 5888 5888 5889 5889 5890 5890 5891 5891 5892 5892 5893 5893 5893
5866 5865 5865 5865 5865 5865 5865 5866 5866 5867 5867 5868 5868 5870 5871 5872 5874 5875 5877 5878 5879 5880 5881 5882 5883 5885 5886 5887 5887 5888 5889 5889 5890 5891 5891 5892 5892 5892 5893 5893 5893 5893 5894
5868 5868 5868 5868 5868 5868 5867 5868 5868 5869 5869 5870 5871 5872 5873 5874 5875 5876 5878 5879 5880 5881 5882 5883 5885 5886 5887 5888 5888 5889 5890 5891 5891 5892 5892 5893 5893 5893 5893 5893 5894 5894 5894
5871 5870 5870 5870 5870 5870 5870 5870 5870 5870 5871 5872 5873 5874 5875 5875 5876 5878 5879 5880 5881 5882 5883 5885 5886 5887 5888 5889 5889 5890 5891 5891 5892 5892 5893 5893 5893 5893 5894 5894 5894 5894 5894
5873 5873 5873 5873 5872 5872 5872 5872 5872 5873 5873 5873 5874 5875 5876 5877 5878 5879 5880 5881 5882 5883 5884 5885 5886 5888 5888 5889 5890 5891 5891 5892 5892 5892 5893 5893 5893 5894 5894 5893 5893 5894 5894
5876 5876 5875 5875 5875 5875 5875 5874 5874 5874 5875 5875 5875 5876 5877 5878 5879 5880 5881 5882 5883 5884 5885 5886 5887 5888 5889 5890 5890 5891 5892 5892 5892 5893 5893 5893 5893 5893 5893 5893 5893 5893 5893
5879 5878 5878 5877 5877 5877 5877 5876 5876 5876 5876 5876 5877 5877 5878 5879 5880 5881 5882 5882 5883 5885 5886 5887 5888 5888 5889 5890 5891 5891 5891 5892 5892 5892 5892 5893 5893 5893 5893 5892 5892 5892 5892
5881 5881 5881 5880 5880 5880 5879 5879 5879 5878 5878 5878 5879 5879 5879 5880 5881 5882 5883 5884 5885 5886 5887 5888 5888 5889 5889 5890 5890 5891 5891 5891 5891 5892 5892 5892 5892 5892 5892 5891 5891 5891 5891
5884 5884 5883 5883 5882 5882 5882 5881 5881 5881 5880 5881 5881 5881 5881 5882 5883 5883 5884 5885 5886 5887 5888 5888 5889 5889 5889 5890 5890 5890 5890 5890 5891 5891 5891 5891 5891 5891 5891 5890 5890 5890 5890
5887 5886 5886 5885 5885 5884 5884 5884 5884 5883 5883 5883 5883 5883 5884 5884 5885 5885 5886 5887 5887 5888 5888 5889 5889 5889 5889 5890 5890 5890 5890 5890 5890 5890 5890 5890 5890 5890 5889 5889 5889 5888 5888
5889 5889 5888 5887 5887 5887 5887 5886 5886 5885 5885 5885 5885 5885 5885 5886 5886 5887 5887 5888 5888 5889 5889 5889 5890 5889 5889 5889 5890 5890 5889 5889 5889 5889 5889 5889 5888 5888 5888 5888 5887 5887 5886
5891 5891 5890 5889 5889 5889 5888 5888 5888 5888 5888 5887 5887 5887 5887 5887 5888 5888 5888 5889 5889 5890 5890 5890 5890 5890 5889 5889 5889 5889 5889 5889 5888 5888 5887 5887 5887 5886 5886 5885 5885 5885 5884
5893 5892 5892 5891 5891 5890 5890 5890 5889 5889 5889 5889 5889 5889 5889 5889 5889 5889 5889 5889 5890 5890 5890 5890 5890 5889 5889 5889 5889 5888 5888 5888 5887 5887 5886 5886 5885 5884 5884 5883 5883 5882 5881
5895 5894 5893 5893 5892 5892 5891 5891 5891 5891 5891 5891 5890 5890 5890 5890 5890 5890 5890 5890 5890 5890 5890 5890 5889 5889 5889 5889 5888 5888 5887 5887 5886 5886 5885 5884 5883 5882 5882 5881 5880 5880 5879
5897 5896 5895 5894 5893 5893 5893 5892 5892 5892 5892 5892 5891 5891 5890 5890 5891 5891 5891 5891 5890 5890 5890 5890 5889 5889 5888 5888 5887 5887 5886 5886 5885 5885 5883 5883 5882 5881 5880 5879 5878 5877 5876
5899 5898 5897 5896 5895 5894 5894 5893 5893 5893 5893 5892 5892 5892 5891 5891 5891 5891 5891 5891 5891 5891 5890 5889 5889 5888 5888 5887 5886 5886 5886 5885 5884 5884 5883 5881 5880 5879 5878 5877 5876 5875 5874
5900 5899 5898 5897 5896 5895 5895 5895 5894 5894 5893 5893 5893 5892 5892 5892 5892 5892 5891 5891 5891 5891 5890 5889 5888 5888 5887 5886 5885 5885 5884 5883 5883 5882 5881 5880 5879 5877 5876 5875 5874 5872 5871
5901 5900 5899 5898 5897 5896 5896 5895 5895 5894 5894 5894 5893 5893 5892 5892 5892 5892 5892 5891 5891 5890 5890 5889 5888 5887 5886 5885 5884 5884 5883 5882 5881 5880 5879 5878 5877 5875 5874 5872 5871 5870 5869